St Solene — FVDG — position and weather

sailwx.info

Track history (hours):
 
Tides and Currents Weather Stations Pressure Air Temp Water Temp Dewpoint Dewpoint Depression Visibility Wind Speed Wind Dir Waves Ship Positions

St Solene

Last reported at 2014-Nov-21 06:33 UTC. Time now 2014-Nov-22 14:25 UTC.
Position N 42°37' E 006°16'.

Length 104 m; draft 6.7 m.

Type: Tanker. MMSI: 226302000.

Date/timePositionNaut miles runAvg speedWind from/ knotsBaromVisibWave heightAir tempDewpointWater temp
2014-Nov-21 06:33N 42°37' E 006°16'1212.0
2014-Nov-21 05:33N 42°43' E 006°02'1211.7
2014-Nov-21 04:33N 42°48' E 005°48'1211.8
2014-Nov-21 03:33N 42°54' E 005°33'3511.6
2014-Nov-21 00:33N 43°18' E 004°59'8 8.3
2014-Nov-20 23:33N 43°26' E 004°53'0 0.2
2014-Nov-20 22:30N 43°26' E 004°54'0 0.0
2014-Nov-20 21:30N 43°26' E 004°54'0 0.0
2014-Nov-20 20:24N 43°26' E 004°54'0 0.0
2014-Nov-20 19:24N 43°26' E 004°54'0 0.0
2014-Nov-20 18:30N 43°26' E 004°54'0 0.0
2014-Nov-20 17:30N 43°26' E 004°54'0 0.0
2014-Nov-20 16:18N 43°26' E 004°54'0 0.0
2014-Nov-20 15:30N 43°26' E 004°54'0 0.0
2014-Nov-20 14:30N 43°26' E 004°54'0 0.0
2014-Nov-20 13:30N 43°26' E 004°54'0 0.0
2014-Nov-20 12:30N 43°26' E 004°54'0 0.0
2014-Nov-20 11:24N 43°26' E 004°54'0 0.0
2014-Nov-20 10:33N 43°26' E 004°54'0 0.0
2014-Nov-20 09:24N 43°26' E 004°54'0 0.0
2014-Nov-20 08:24N 43°26' E 004°54'0 0.0
2014-Nov-20 07:30N 43°26' E 004°54'0 0.0
2014-Nov-20 06:33N 43°26' E 004°54'1 0.9
2014-Nov-20 05:33N 43°25' E 004°53'2 1.7
2014-Nov-20 04:33N 43°25' E 004°55'0 0.0
2014-Nov-20 03:34N 43°25' E 004°55'0 0.0
2014-Nov-20 02:34N 43°25' E 004°55'0 0.0
2014-Nov-20 01:33N 43°25' E 004°55'0 0.0
2014-Nov-20 00:33N 43°25' E 004°55'0 0.0
2014-Nov-19 23:34N 43°25' E 004°55'0 0.0
2014-Nov-19 22:33N 43°25' E 004°55'0 0.0
2014-Nov-19 21:34N 43°25' E 004°55'0 0.0
2014-Nov-19 20:33N 43°25' E 004°55'7 7.0
2014-Nov-19 19:33N 43°18' E 004°60'1411.2
2014-Nov-19 18:20N 43°09' E 005°14'1312.4
2014-Nov-19 17:15N 43°05' E 005°31'912.5
2014-Nov-19 16:34N 43°02' E 005°42'1312.7
2014-Nov-19 15:33N 42°58' E 005°59'1111.5
2014-Nov-19 14:34N 42°56' E 006°14'1211.5
2014-Nov-19 13:33N 42°51' E 006°29'9 9.4
2014-Nov-19 12:33N 42°52' E 006°42'12010.6
2014-Nov-19 01:15N 43°07' E 009°25'4 0.2
2014-Nov-18 03:32N 43°10' E 009°21'10012.4
2014-Nov-17 19:28N 42°56' E 007°05'1112.3
2014-Nov-17 18:33N 42°54' E 006°50'1211.9
2014-Nov-17 17:33N 42°53' E 006°34'1211.6
2014-Nov-17 16:34N 42°51' E 006°18'1211.6
2014-Nov-17 15:34N 42°50' E 006°02'1111.2
2014-Nov-17 14:33N 42°48' E 005°47'1211.6
2014-Nov-17 13:34N 42°55' E 005°34'2512.4
2014-Nov-17 11:33N 43°09' E 005°06'1212.1
2014-Nov-17 10:34N 43°20' E 004°59'7 6.9
2014-Nov-17 09:34N 43°26' E 004°54'0 0.0
2014-Nov-17 08:28N 43°26' E 004°54'0 0.0
2014-Nov-17 07:28N 43°26' E 004°54'0 0.0
2014-Nov-17 06:25N 43°26' E 004°54'0 0.0
2014-Nov-17 05:22N 43°26' E 004°54'0 0.0
2014-Nov-17 04:28N 43°26' E 004°54'0 0.0
2014-Nov-17 03:31N 43°26' E 004°54'0 0.0
2014-Nov-17 02:22N 43°26' E 004°54'0 0.0
2014-Nov-17 01:31N 43°26' E 004°54'0 0.0
2014-Nov-17 00:28N 43°26' E 004°54'0 0.0
2014-Nov-16 23:28N 43°26' E 004°54'0 0.0
2014-Nov-16 22:28N 43°26' E 004°54'0 0.0
2014-Nov-16 21:28N 43°26' E 004°54'0 0.0
2014-Nov-16 20:22N 43°26' E 004°54'0 0.0
2014-Nov-16 19:28N 43°26' E 004°54'0 0.0
2014-Nov-16 18:28N 43°26' E 004°54'0 0.0
2014-Nov-16 17:28N 43°26' E 004°54'0 0.0
2014-Nov-16 16:31N 43°26' E 004°54'0 0.0
2014-Nov-16 15:28N 43°26' E 004°54'0 0.0
2014-Nov-16 14:31N 43°26' E 004°54'0 0.0
2014-Nov-16 13:25N 43°26' E 004°54'0 0.1
2014-Nov-16 12:32N 43°26' E 004°54'4 3.6
2014-Nov-16 11:33N 43°24' E 004°58'0 0.0
2014-Nov-16 10:33N 43°24' E 004°58'0 0.0
2014-Nov-16 09:33N 43°24' E 004°58'0 0.0
2014-Nov-16 08:33N 43°24' E 004°58'0 0.0
2014-Nov-16 07:33N 43°24' E 004°58'0 0.0
2014-Nov-16 06:33N 43°24' E 004°58'0 0.0
2014-Nov-16 05:33N 43°24' E 004°58'0 0.0
2014-Nov-16 04:33N 43°24' E 004°58'0 0.0
2014-Nov-16 03:33N 43°24' E 004°58'0 0.0
2014-Nov-16 02:33N 43°24' E 004°58'0 0.0
2014-Nov-16 01:33N 43°24' E 004°58'0 0.0
2014-Nov-16 00:33N 43°24' E 004°58'0 0.1
2014-Nov-15 23:33N 43°24' E 004°58'0 0.0
2014-Nov-15 22:33N 43°24' E 004°58'0 0.0
2014-Nov-15 21:33N 43°24' E 004°58'0 0.0
2014-Nov-15 20:33N 43°24' E 004°58'0 0.0
2014-Nov-15 19:33N 43°24' E 004°58'0 0.0
2014-Nov-15 18:33N 43°24' E 004°58'1 1.0
2014-Nov-15 17:33N 43°23' E 004°58'1110.8
2014-Nov-15 16:33N 43°12' E 005°02'9 9.2
2014-Nov-15 15:33N 43°18' E 005°12'7 5.7
2014-Nov-15 14:24N 43°19' E 005°21'0 0.0
2014-Nov-15 13:12N 43°19' E 005°21'0 0.0
2014-Nov-15 12:30N 43°19' E 005°21'0 0.0
2014-Nov-15 11:30N 43°19' E 005°21'0 0.0
2014-Nov-15 10:30N 43°19' E 005°21'0 0.0
2014-Nov-15 09:30N 43°19' E 005°21'0 0.0
2014-Nov-15 08:18N 43°19' E 005°21'0 0.0
2014-Nov-15 07:33N 43°19' E 005°21'0 0.0
2014-Nov-15 06:33N 43°19' E 005°21'0 0.0
2014-Nov-15 05:33N 43°19' E 005°21'0 0.0
2014-Nov-15 04:24N 43°19' E 005°21'0 0.0
2014-Nov-15 03:33N 43°19' E 005°21'0 0.0
2014-Nov-15 02:30N 43°19' E 005°21'0 0.0
2014-Nov-15 01:21N 43°19' E 005°21'0 0.0
2014-Nov-15 00:30N 43°19' E 005°21'0 0.0
2014-Nov-14 23:27N 43°19' E 005°21'0 0.0
2014-Nov-14 22:18N 43°19' E 005°21'0 0.0
2014-Nov-14 21:24N 43°19' E 005°21'0 0.0
2014-Nov-14 20:33N 43°19' E 005°21'0 0.0
2014-Nov-14 19:18N 43°19' E 005°21'0 0.0
2014-Nov-14 18:30N 43°19' E 005°21'0 0.0
2014-Nov-14 17:24N 43°19' E 005°21'0 0.0
2014-Nov-14 16:21N 43°19' E 005°21'0 0.0
2014-Nov-14 15:24N 43°19' E 005°21'0 0.0
2014-Nov-14 12:30N 43°19' E 005°21'0 0.0
2014-Nov-14 11:24N 43°19' E 005°21'0 0.0
2014-Nov-14 10:24N 43°19' E 005°21'0 0.0
2014-Nov-14 09:27N 43°19' E 005°21'0 0.0
2014-Nov-14 08:21N 43°19' E 005°21'0 0.0
2014-Nov-14 07:30N 43°19' E 005°21'0 0.0
2014-Nov-14 06:33N 43°19' E 005°21'0 0.0
2014-Nov-14 05:33N 43°19' E 005°21'0 0.0
2014-Nov-14 04:30N 43°19' E 005°21'0 0.0
2014-Nov-14 03:15N 43°19' E 005°21'0 0.0
2014-Nov-14 02:18N 43°19' E 005°21'0 0.0
2014-Nov-14 01:33N 43°19' E 005°21'0 0.0
2014-Nov-14 00:30N 43°19' E 005°21'0 0.0
2014-Nov-13 23:24N 43°19' E 005°21'0 0.0
2014-Nov-13 22:30N 43°19' E 005°21'0 0.0
2014-Nov-13 21:15N 43°19' E 005°21'0 0.0
2014-Nov-13 20:33N 43°19' E 005°21'0 0.0
2014-Nov-13 19:33N 43°19' E 005°21'0 0.0
2014-Nov-13 18:33N 43°19' E 005°21'0 0.0
2014-Nov-13 17:21N 43°19' E 005°21'0 0.0
2014-Nov-13 16:30N 43°19' E 005°21'0 0.0
2014-Nov-13 15:30N 43°19' E 005°21'0 0.0
2014-Nov-13 14:24N 43°19' E 005°21'0 0.0
2014-Nov-13 13:24N 43°19' E 005°21'0 0.0
2014-Nov-13 12:24N 43°19' E 005°21'0 0.0
2014-Nov-13 11:30N 43°19' E 005°21'0 0.0
2014-Nov-13 10:33N 43°19' E 005°21'0 0.0
2014-Nov-13 09:24N 43°19' E 005°21'0 0.0
2014-Nov-13 08:24N 43°19' E 005°21'0 0.0
2014-Nov-13 07:33N 43°19' E 005°21'0 0.0
2014-Nov-13 06:33N 43°19' E 005°21'0 0.0
2014-Nov-13 05:33N 43°19' E 005°21'0 0.0
2014-Nov-13 04:33N 43°19' E 005°21'0 0.0
2014-Nov-13 03:30N 43°19' E 005°21'0 0.0
2014-Nov-13 02:27N 43°19' E 005°21'0 0.0
2014-Nov-13 01:24N 43°19' E 005°21'0 0.0
2014-Nov-13 00:30N 43°19' E 005°21'0 0.0
2014-Nov-12 23:30N 43°19' E 005°21'0 0.0
2014-Nov-12 22:06N 43°19' E 005°21'0 0.0
2014-Nov-12 21:15N 43°19' E 005°21'0 0.0
2014-Nov-12 20:30N 43°19' E 005°21'0 0.0
2014-Nov-12 19:33N 43°19' E 005°21'0 0.0
2014-Nov-12 18:30N 43°19' E 005°21'0 0.0
2014-Nov-12 17:33N 43°19' E 005°21'0 0.0
2014-Nov-12 16:30N 43°19' E 005°21'0 0.0
2014-Nov-12 15:30N 43°19' E 005°21'0 0.0
2014-Nov-12 14:27N 43°19' E 005°21'0 0.0
2014-Nov-12 13:12N 43°19' E 005°21'0 0.0
2014-Nov-12 11:24N 43°19' E 005°21'0 0.0
2014-Nov-12 10:30N 43°19' E 005°21'0 0.0
2014-Nov-12 09:18N 43°19' E 005°21'0 0.0
2014-Nov-12 08:27N 43°19' E 005°21'0 0.0
2014-Nov-12 07:30N 43°19' E 005°21'0 0.0
2014-Nov-12 06:30N 43°19' E 005°21'0 0.0
2014-Nov-12 05:30N 43°19' E 005°21'0 0.0
2014-Nov-12 04:30N 43°19' E 005°21'0 0.0
2014-Nov-12 03:30N 43°19' E 005°21'0 0.0
2014-Nov-12 02:30N 43°19' E 005°21'0 0.0
2014-Nov-12 01:24N 43°19' E 005°21'0 0.0
2014-Nov-12 00:06N 43°19' E 005°21'0 0.0
2014-Nov-11 23:12N 43°19' E 005°21'0 0.0
2014-Nov-11 22:33N 43°19' E 005°21'0 0.0
2014-Nov-11 21:18N 43°19' E 005°21'0 0.0
2014-Nov-11 20:30N 43°19' E 005°21'0 0.0
2014-Nov-11 19:30N 43°19' E 005°21'0 0.0
2014-Nov-11 18:06N 43°19' E 005°21'0 0.0
2014-Nov-11 17:27N 43°19' E 005°21'0 0.0
2014-Nov-11 16:24N 43°19' E 005°21'0 0.0
2014-Nov-11 15:24N 43°19' E 005°21'0 0.0
2014-Nov-11 14:30N 43°19' E 005°21'0 0.0
2014-Nov-11 13:30N 43°19' E 005°21'0 0.0
2014-Nov-11 12:21N 43°19' E 005°21'0 0.0
2014-Nov-11 11:30N 43°19' E 005°21'0 0.0
2014-Nov-11 10:30N 43°19' E 005°21'0 0.0
2014-Nov-11 09:12N 43°19' E 005°21'0 0.0
2014-Nov-11 08:33N 43°19' E 005°21'0 0.0
2014-Nov-11 07:18N 43°19' E 005°21'  
Track history (hours):
 
Tides and Currents Weather Stations Pressure Air Temp Water Temp Dewpoint Dewpoint Depression Visibility Wind Speed Wind Dir Waves Ship Positions

St Solene

Last reported at 2014-Nov-21 06:33 UTC. Time now 2014-Nov-22 14:25 UTC.
Position N 42°37' E 006°16'.

Length 104 m; draft 6.7 m.

Type: Tanker. MMSI: 226302000.

Date/timePositionNaut miles runAvg speedWind from/ knotsBaromVisibWave heightAir tempDewpointWater temp
2014-Nov-21 06:33N 42°37' E 006°16'1212.0
2014-Nov-21 05:33N 42°43' E 006°02'1211.7
2014-Nov-21 04:33N 42°48' E 005°48'1211.8
2014-Nov-21 03:33N 42°54' E 005°33'3511.6
2014-Nov-21 00:33N 43°18' E 004°59'8 8.3
2014-Nov-20 23:33N 43°26' E 004°53'0 0.2
2014-Nov-20 22:30N 43°26' E 004°54'0 0.0
2014-Nov-20 21:30N 43°26' E 004°54'0 0.0
2014-Nov-20 20:24N 43°26' E 004°54'0 0.0
2014-Nov-20 19:24N 43°26' E 004°54'0 0.0
2014-Nov-20 18:30N 43°26' E 004°54'0 0.0
2014-Nov-20 17:30N 43°26' E 004°54'0 0.0
2014-Nov-20 16:18N 43°26' E 004°54'0 0.0
2014-Nov-20 15:30N 43°26' E 004°54'0 0.0
2014-Nov-20 14:30N 43°26' E 004°54'0 0.0
2014-Nov-20 13:30N 43°26' E 004°54'0 0.0
2014-Nov-20 12:30N 43°26' E 004°54'0 0.0
2014-Nov-20 11:24N 43°26' E 004°54'0 0.0
2014-Nov-20 10:33N 43°26' E 004°54'0 0.0
2014-Nov-20 09:24N 43°26' E 004°54'0 0.0
2014-Nov-20 08:24N 43°26' E 004°54'0 0.0
2014-Nov-20 07:30N 43°26' E 004°54'0 0.0
2014-Nov-20 06:33N 43°26' E 004°54'1 0.9
2014-Nov-20 05:33N 43°25' E 004°53'2 1.7
2014-Nov-20 04:33N 43°25' E 004°55'0 0.0
2014-Nov-20 03:34N 43°25' E 004°55'0 0.0
2014-Nov-20 02:34N 43°25' E 004°55'0 0.0
2014-Nov-20 01:33N 43°25' E 004°55'0 0.0
2014-Nov-20 00:33N 43°25' E 004°55'0 0.0
2014-Nov-19 23:34N 43°25' E 004°55'0 0.0
2014-Nov-19 22:33N 43°25' E 004°55'0 0.0
2014-Nov-19 21:34N 43°25' E 004°55'0 0.0
2014-Nov-19 20:33N 43°25' E 004°55'7 7.0
2014-Nov-19 19:33N 43°18' E 004°60'1411.2
2014-Nov-19 18:20N 43°09' E 005°14'1312.4
2014-Nov-19 17:15N 43°05' E 005°31'912.5
2014-Nov-19 16:34N 43°02' E 005°42'1312.7
2014-Nov-19 15:33N 42°58' E 005°59'1111.5
2014-Nov-19 14:34N 42°56' E 006°14'1211.5
2014-Nov-19 13:33N 42°51' E 006°29'9 9.4
2014-Nov-19 12:33N 42°52' E 006°42'12010.6
2014-Nov-19 01:15N 43°07' E 009°25'4 0.2
2014-Nov-18 03:32N 43°10' E 009°21'10012.4
2014-Nov-17 19:28N 42°56' E 007°05'1112.3
2014-Nov-17 18:33N 42°54' E 006°50'1211.9
2014-Nov-17 17:33N 42°53' E 006°34'1211.6
2014-Nov-17 16:34N 42°51' E 006°18'1211.6
2014-Nov-17 15:34N 42°50' E 006°02'1111.2
2014-Nov-17 14:33N 42°48' E 005°47'1211.6
2014-Nov-17 13:34N 42°55' E 005°34'2512.4
2014-Nov-17 11:33N 43°09' E 005°06'1212.1
2014-Nov-17 10:34N 43°20' E 004°59'7 6.9
2014-Nov-17 09:34N 43°26' E 004°54'0 0.0
2014-Nov-17 08:28N 43°26' E 004°54'0 0.0
2014-Nov-17 07:28N 43°26' E 004°54'0 0.0
2014-Nov-17 06:25N 43°26' E 004°54'0 0.0
2014-Nov-17 05:22N 43°26' E 004°54'0 0.0
2014-Nov-17 04:28N 43°26' E 004°54'0 0.0
2014-Nov-17 03:31N 43°26' E 004°54'0 0.0
2014-Nov-17 02:22N 43°26' E 004°54'0 0.0
2014-Nov-17 01:31N 43°26' E 004°54'0 0.0
2014-Nov-17 00:28N 43°26' E 004°54'0 0.0
2014-Nov-16 23:28N 43°26' E 004°54'0 0.0
2014-Nov-16 22:28N 43°26' E 004°54'0 0.0
2014-Nov-16 21:28N 43°26' E 004°54'0 0.0
2014-Nov-16 20:22N 43°26' E 004°54'0 0.0
2014-Nov-16 19:28N 43°26' E 004°54'0 0.0
2014-Nov-16 18:28N 43°26' E 004°54'0 0.0
2014-Nov-16 17:28N 43°26' E 004°54'0 0.0
2014-Nov-16 16:31N 43°26' E 004°54'0 0.0
2014-Nov-16 15:28N 43°26' E 004°54'0 0.0
2014-Nov-16 14:31N 43°26' E 004°54'0 0.0
2014-Nov-16 13:25N 43°26' E 004°54'0 0.1
2014-Nov-16 12:32N 43°26' E 004°54'4 3.6
2014-Nov-16 11:33N 43°24' E 004°58'0 0.0
2014-Nov-16 10:33N 43°24' E 004°58'0 0.0
2014-Nov-16 09:33N 43°24' E 004°58'0 0.0
2014-Nov-16 08:33N 43°24' E 004°58'0 0.0
2014-Nov-16 07:33N 43°24' E 004°58'0 0.0
2014-Nov-16 06:33N 43°24' E 004°58'0 0.0
2014-Nov-16 05:33N 43°24' E 004°58'0 0.0
2014-Nov-16 04:33N 43°24' E 004°58'0 0.0
2014-Nov-16 03:33N 43°24' E 004°58'0 0.0
2014-Nov-16 02:33N 43°24' E 004°58'0 0.0
2014-Nov-16 01:33N 43°24' E 004°58'0 0.0
2014-Nov-16 00:33N 43°24' E 004°58'0 0.1
2014-Nov-15 23:33N 43°24' E 004°58'0 0.0
2014-Nov-15 22:33N 43°24' E 004°58'0 0.0
2014-Nov-15 21:33N 43°24' E 004°58'0 0.0
2014-Nov-15 20:33N 43°24' E 004°58'0 0.0
2014-Nov-15 19:33N 43°24' E 004°58'0 0.0
2014-Nov-15 18:33N 43°24' E 004°58'1 1.0
2014-Nov-15 17:33N 43°23' E 004°58'1110.8
2014-Nov-15 16:33N 43°12' E 005°02'9 9.2
2014-Nov-15 15:33N 43°18' E 005°12'7 5.7
2014-Nov-15 14:24N 43°19' E 005°21'0 0.0
2014-Nov-15 13:12N 43°19' E 005°21'0 0.0
2014-Nov-15 12:30N 43°19' E 005°21'0 0.0
2014-Nov-15 11:30N 43°19' E 005°21'0 0.0
2014-Nov-15 10:30N 43°19' E 005°21'0 0.0
2014-Nov-15 09:30N 43°19' E 005°21'0 0.0
2014-Nov-15 08:18N 43°19' E 005°21'0 0.0
2014-Nov-15 07:33N 43°19' E 005°21'0 0.0
2014-Nov-15 06:33N 43°19' E 005°21'0 0.0
2014-Nov-15 05:33N 43°19' E 005°21'0 0.0
2014-Nov-15 04:24N 43°19' E 005°21'0 0.0
2014-Nov-15 03:33N 43°19' E 005°21'0 0.0
2014-Nov-15 02:30N 43°19' E 005°21'0 0.0
2014-Nov-15 01:21N 43°19' E 005°21'0 0.0
2014-Nov-15 00:30N 43°19' E 005°21'0 0.0
2014-Nov-14 23:27N 43°19' E 005°21'0 0.0
2014-Nov-14 22:18N 43°19' E 005°21'0 0.0
2014-Nov-14 21:24N 43°19' E 005°21'0 0.0
2014-Nov-14 20:33N 43°19' E 005°21'0 0.0
2014-Nov-14 19:18N 43°19' E 005°21'0 0.0
2014-Nov-14 18:30N 43°19' E 005°21'0 0.0
2014-Nov-14 17:24N 43°19' E 005°21'0 0.0
2014-Nov-14 16:21N 43°19' E 005°21'0 0.0
2014-Nov-14 15:24N 43°19' E 005°21'0 0.0
2014-Nov-14 12:30N 43°19' E 005°21'0 0.0
2014-Nov-14 11:24N 43°19' E 005°21'0 0.0
2014-Nov-14 10:24N 43°19' E 005°21'0 0.0
2014-Nov-14 09:27N 43°19' E 005°21'0 0.0
2014-Nov-14 08:21N 43°19' E 005°21'0 0.0
2014-Nov-14 07:30N 43°19' E 005°21'0 0.0
2014-Nov-14 06:33N 43°19' E 005°21'0 0.0
2014-Nov-14 05:33N 43°19' E 005°21'0 0.0
2014-Nov-14 04:30N 43°19' E 005°21'0 0.0
2014-Nov-14 03:15N 43°19' E 005°21'0 0.0
2014-Nov-14 02:18N 43°19' E 005°21'0 0.0
2014-Nov-14 01:33N 43°19' E 005°21'0 0.0
2014-Nov-14 00:30N 43°19' E 005°21'0 0.0
2014-Nov-13 23:24N 43°19' E 005°21'0 0.0
2014-Nov-13 22:30N 43°19' E 005°21'0 0.0
2014-Nov-13 21:15N 43°19' E 005°21'0 0.0
2014-Nov-13 20:33N 43°19' E 005°21'0 0.0
2014-Nov-13 19:33N 43°19' E 005°21'0 0.0
2014-Nov-13 18:33N 43°19' E 005°21'0 0.0
2014-Nov-13 17:21N 43°19' E 005°21'0 0.0
2014-Nov-13 16:30N 43°19' E 005°21'0 0.0
2014-Nov-13 15:30N 43°19' E 005°21'0 0.0
2014-Nov-13 14:24N 43°19' E 005°21'0 0.0
2014-Nov-13 13:24N 43°19' E 005°21'0 0.0
2014-Nov-13 12:24N 43°19' E 005°21'0 0.0
2014-Nov-13 11:30N 43°19' E 005°21'0 0.0
2014-Nov-13 10:33N 43°19' E 005°21'0 0.0
2014-Nov-13 09:24N 43°19' E 005°21'0 0.0
2014-Nov-13 08:24N 43°19' E 005°21'0 0.0
2014-Nov-13 07:33N 43°19' E 005°21'0 0.0
2014-Nov-13 06:33N 43°19' E 005°21'0 0.0
2014-Nov-13 05:33N 43°19' E 005°21'0 0.0
2014-Nov-13 04:33N 43°19' E 005°21'0 0.0
2014-Nov-13 03:30N 43°19' E 005°21'0 0.0
2014-Nov-13 02:27N 43°19' E 005°21'0 0.0
2014-Nov-13 01:24N 43°19' E 005°21'0 0.0
2014-Nov-13 00:30N 43°19' E 005°21'0 0.0
2014-Nov-12 23:30N 43°19' E 005°21'0 0.0
2014-Nov-12 22:06N 43°19' E 005°21'0 0.0
2014-Nov-12 21:15N 43°19' E 005°21'0 0.0
2014-Nov-12 20:30N 43°19' E 005°21'0 0.0
2014-Nov-12 19:33N 43°19' E 005°21'0 0.0
2014-Nov-12 18:30N 43°19' E 005°21'0 0.0
2014-Nov-12 17:33N 43°19' E 005°21'0 0.0
2014-Nov-12 16:30N 43°19' E 005°21'0 0.0
2014-Nov-12 15:30N 43°19' E 005°21'0 0.0
2014-Nov-12 14:27N 43°19' E 005°21'0 0.0
2014-Nov-12 13:12N 43°19' E 005°21'0 0.0
2014-Nov-12 11:24N 43°19' E 005°21'0 0.0
2014-Nov-12 10:30N 43°19' E 005°21'0 0.0
2014-Nov-12 09:18N 43°19' E 005°21'0 0.0
2014-Nov-12 08:27N 43°19' E 005°21'0 0.0
2014-Nov-12 07:30N 43°19' E 005°21'0 0.0
2014-Nov-12 06:30N 43°19' E 005°21'0 0.0
2014-Nov-12 05:30N 43°19' E 005°21'0 0.0
2014-Nov-12 04:30N 43°19' E 005°21'0 0.0
2014-Nov-12 03:30N 43°19' E 005°21'0 0.0
2014-Nov-12 02:30N 43°19' E 005°21'0 0.0
2014-Nov-12 01:24N 43°19' E 005°21'0 0.0
2014-Nov-12 00:06N 43°19' E 005°21'0 0.0
2014-Nov-11 23:12N 43°19' E 005°21'0 0.0
2014-Nov-11 22:33N 43°19' E 005°21'0 0.0
2014-Nov-11 21:18N 43°19' E 005°21'0 0.0
2014-Nov-11 20:30N 43°19' E 005°21'0 0.0
2014-Nov-11 19:30N 43°19' E 005°21'0 0.0
2014-Nov-11 18:06N 43°19' E 005°21'0 0.0
2014-Nov-11 17:27N 43°19' E 005°21'0 0.0
2014-Nov-11 16:24N 43°19' E 005°21'0 0.0
2014-Nov-11 15:24N 43°19' E 005°21'0 0.0
2014-Nov-11 14:30N 43°19' E 005°21'0 0.0
2014-Nov-11 13:30N 43°19' E 005°21'0 0.0
2014-Nov-11 12:21N 43°19' E 005°21'0 0.0
2014-Nov-11 11:30N 43°19' E 005°21'0 0.0
2014-Nov-11 10:30N 43°19' E 005°21'0 0.0
2014-Nov-11 09:12N 43°19' E 005°21'0 0.0
2014-Nov-11 08:33N 43°19' E 005°21'0 0.0
2014-Nov-11 07:18N 43°19' E 005°21'  

Dump ship's entire track history